SL-3 R/B (5118 NORAD) Tracking and Keplerian Element Data

This shows tracking and keplerian element data for the satellite.

Feedback or suggestion? Click here.




ElementValue
Catalog5118
NameSL-3 R/B
Epoch Orbit86760
Epoch Day12.91464932
Epoch Year2024
RAAN272.0592
Inclination81.2519
Eccentricity0.0038615
Argument of Perigee137.4579
Mean Anonmoly222.9658
Mean Motion15.24665741
Decay Rate0.000109
L11 05118U 71028B 24012.91464932 .00010900 00000+0 43074-3 0 9990
L22 05118 81.2519 272.0592 0038615 137.4579 222.9658 15.24665741867601



Live tracking and technical data element details for SL-3 R/B (NORAD 5118). SL-3 R/B can be tracked NOW for your location showing map with azimuth and elevation plus other details from your city location.







IsCatalogInMostPopularTable: catalog: 5118, numindb: 325
Update: records affected: 1



GetName: 5118 SL-3 R/B

Hit Count: updated at: Fri, 19 Apr 2024 12:39:27 GMT